Regional Weather Roundup
Issued by NWS Sioux Falls, SD

Home | Current Version | Previous Version | Text Only | Print | Product List | Glossary On
Versions: 1 2 3 4 5 6 7 8 9 10 11 12 13 14 15 16 17 18 19 20 21 22 23 24 25 26 27 28 29 30 31 32 33 34 35 36 37 38 39 40 41 42 43 44 45 46 47 48 49 50
000
ASUS43 KFSD 221410
RWRFSD

WEATHER ROUNDUP FOR SE SOUTH DAKOTA/SW MINNESOTA/NW IOWA
NATIONAL WEATHER SERVICE SIOUX FALLS SD
900 AM CDT SUN APR 22 2018

NOTE: "FAIR" INDICATES FEW OR NO CLOUDS BELOW 12,000 FEET WITH NO
SIGNIFICANT WEATHER AND OR OBSTRUCTIONS TO VISIBILITY.


SDZ038>040-050-052>070-221500-
SOUTHEAST SOUTH DAKOTA

CITY           SKY/WX    TMP DP  RH WIND       PRES   REMARKS
BROOKINGS      SUNNY     45  36  70 SE5       30.30F
CHAMBERLAIN    SUNNY     45  42  89 CALM      30.26S
HURON            N/A     44  37  76 S8        30.28R
MADISON        FAIR      39  39 100 E3        30.30S
MITCHELL       SUNNY     43  38  82 SE7       30.29F
SIOUX FALLS    MOSUNNY   45  35  68 E5        30.30S
WINNER         FAIR      45  36  70 S7        30.25R
YANKTON        SUNNY     44  36  73 CALM      30.30
$$

MNZ071-072-080-081-089-090-097-098-221500-
SOUTHWEST MINNESOTA

CITY           SKY/WX    TMP DP  RH WIND       PRES   REMARKS
FAIRMONT       CLOUDY    37  32  82 NE3       30.34S
JACKSON        SUNNY     37  34  87 CALM      30.33S
LUVERNE        SUNNY     43  34  70 E5        30.32R
MARSHALL       SUNNY     43  34  70 S3        30.33S
MONTEVIDEO     MOSUNNY   45  37  76 S3        30.33S
PIPESTONE      SUNNY    N/A N/A N/A SE5       30.30S
REDWOOD FALLS  SUNNY     41  36  82 E6        30.34S
TRACY          SUNNY     45  37  73 S3        30.32S
WINDOM         MOSUNNY   43  27  52 CALM      30.33S
WORTHINGTON    SUNNY     38  34  85 NE3       30.33R
$$

IAZ001>003-012>014-020>022-031-032-NEZ013-014-SDZ071-221500-
NORTHWEST IOWA

CITY           SKY/WX    TMP DP  RH WIND       PRES   REMARKS
CHEROKEE       MOSUNNY   47  37  69 E10       30.29S
DENISON        CLOUDY    48  34  57 E13G18    30.27S
ESTHERVILLE    MOSUNNY   35  32  88 NE6       30.32R
LE MARS        PTSUNNY   41  36  81 NE6       30.30R
ORANGE CITY    MOSUNNY   45  39  81 E6        30.30S
SHELDON        MOSUNNY   43  39  87 E8        30.29S
SIOUX CITY     PTSUNNY   48  35  60 N3        30.29R
SPENCER        CLOUDY    42  35  76 E6        30.31R
STORM LAKE     SUNNY     43  36  75 E9        30.28S
$$

ABBREVIATIONS USED IN REMARKS
   TC - TEMPERATURE IN CELSIUS
  WCI - WIND CHILL INDEX
   HX - HEAT INDEX
  VSB - VISIBILITY




USA.gov is the U.S. government's official web portal to all federal, state and local government web resources and services.